Location: Hackbridge
(51.3833°N, 0.1500°W)
Time: 16:58:48
(UTC+00:00)

STARLINK-42 - Pass Details

Date: 13 October 2019
Orbit: 548 x 551 km, 53.0° (Epoch: 17 November)

Event Time Altitude Azimuth Distance (km) Brightness Sun altitude
Rises 18:44:05 0° 230° (SW) 2,709 7.8 -15.1°
Reaches altitude 10° 18:46:21 10° 224° (SW) 1,818 6.8 -15.4°
Maximum altitude 18:50:20 49° 150° (SSE) 719 3.9 -16.0°
Enters shadow 18:51:47 33° 97° (E) 942 4.2 -16.3°
